SHENZHOU-11 MODULE (41868 NORAD) Tracking and Keplerian Element Data

This shows tracking and keplerian element data for the satellite.

Feedback or suggestion? Click here.




ElementValue
Catalog41868
NameSHENZHOU-11 MODULE
Epoch Orbit11874
Epoch Day348.82006484
Epoch Year2018
RAAN294.5356
Inclination42.7937
Eccentricity0.0003477
Argument of Perigee205.1795
Mean Anonmoly236.0209
Mean Motion15.75695368
Decay Rate0.00010389
L11 41868U 16061G 18348.82006484 .00010389 00000-0 68617-4 0 9990
L22 41868 42.7937 294.5356 0003477 205.1795 236.0209 15.75695368118743

Live tracking and technical data element details for SHENZHOU-11 MODULE (NORAD 41868). SHENZHOU-11 MODULE can be tracked NOW for your location showing map with azimuth and elevation plus other details from your city location.

Track the satellite on the map from your city or location and see movement details for azimuth, elevation, latitude, longitude, range, height, and movement on the map or in text.







IsCatalogInMostPopularTable: catalog: 41868, numindb: 143
Update: records affected: 1



GetName: 41868 SHENZHOU-11 MODULE

Hit Count: updated at: Sat, 15 Dec 2018 13:52:21 GMT